SCP
0 0 0 0 0 0 0 0 0 0 0 0 0 0 0 0 0 0 0 0 0 0 0 0 0 0 0 0 0 0 0 0 0 0 0 0 0 0
0 0 0 0 0 0 0 0 0 0 0 0 0 0 0 0 0 0 0 0 0 0 0 0 0 0 0 0 0 0 0 0 0 0 0 0 0 0
0 0 0 0 0 0 0 0 0 0 0 0 0 0 0 0 0 0 0 0 0 0 0 0 0 0 0 0 0 0 0 0 0 0 0 0 0 0
0 0 0 0 0 0 0 0 0 0 0 0 0 0 0 0 0 0 0 0 0 0 0 0 0 0 0 0 0 0 0 0 0 0 0 0 0 0
0 0 0 0 0 0 0 0 0 0 0 0 0 0 0 0 0 0 0 0 0 0 0 0 -0 0 0 0 0 0 0 0 0 0 0 0 0 0
0 0 0 0 0 0 0 0 0 0 0 0 0 0 0 0 0 0 0 0 0 -0 -0 -0 -0 -0 -0 -0 0 0 0 0 0 0 0 0 0 0
0 0 0 0 0 0 0 0 0 0 0 0 0 0 0 0 0 0 -0 -0 -0 -0 -0 -0 -0 0 0 0 0 0 0 -0 -0 0 0 0 0 0
0 0 0 0 0 0 0 0 0 0 0 0 0 0 -0 -0 -0 -0 -0 -0 -0 -0 -0 0 0 0 0 0 -0 -0 0 -0 -0 0 0 0 0 0
0 0 0 0 0 0 0 0 0 -0 -0 -0 -0 -0 -0 -0 -0 -0 -0 -0 0 0 0 0 0 0 0 0 0 -0 -0 -0 -0 0 0 0 0 0
0 0 0 0 0 0 0 0 0 -0 -0 -0 -0 -0 -0 -0 -0 0 0 0 0 0 -0 0 0 0 0 0 0 -0 -0 -0 0 0 0 0 0 0
0 0 0 0 -0 0 0 -0 -0 -0 -0 -0 -0 -0 -0 -0 -0 0 0 0 0 0 0 0 -0 0 0 0 0 -0 -0 0 0 0 0 0 0 0
0 -0 -0 -0 -0 -0 0 0 -0 -0 -0 0 0 0 0 0 0 0 0 0 0 0 0 0 0 0 -0 0 0 0 0 0 0 0 0 0 0 0
-0 -0 -0 -0 -0 -0 0 -0 -0 0 0 0 0 0 0 0 0 0 0 0 0 0 0 0 0 0 0 0 0 0 0 0 0 0 0 0 0 0
0 0 0 0 0 0 0 0 0 0 0 0 0 0 0 0 0 0 0 0 0 0 0 0 0 0 0 0 0 0 0 0 0 0 0 0 0 0
0 0 0 0 0 0 0 0 0 0 0 0 0 0 0 0 0 0 0 0 0 0 0 0 0 0 0 0 0 0 0 0 0 0 0 0 0 0
0 0 0 0 0 0 0 0 0 0 0 0 0 0 0 0 0 0 0 0 0 0 0 0 0 0 0 0 0 0 0 0 0 0 0 0 0 0
0 0 0 0 0 0 0 0 0 0 0 0 0 0 0 0 0 0 0 0 0 0 0 0 0 0 0 0 0 0 0 0 0 0 0 0 0 0
0 0 0 0 0 0 0 0 0 0 0 0 0 0 0 0 0 0 0 0 0 0 0 0 0 0 0 0 0 0 0 0 0 0 0 0 0 0
0 0 0 0 0 0 0 0 0 0 0 0 0 0 0 0 0 0 0 0 0 0 0 0 0 0 0 0 0 0 0 0 0 0 0 0 0 0
0 0 0 0 0 0 0 0 0 0 0 0 0 0 0 0 0 0 0 0 0 0 0 0 0 0 0 0 0 0 0 0 0 0 0 0 0 0
0 0 0 0 0 0 0 0 0 0 0 0 0 0 0 0 0 0 0 0 0 0 0 0 0 0 0 0 0 0 0 0 0 0 0 0 0 0
0 0 0 0 0 0 0 0 0 0 0 0 0 0 0 0 0 0 0 0 0 0 0 0 0 0 0 0 0 0 0 0 0 0 0 0 0 0
0 0 0 0 0 0 0 0 0 0 0 0 0 0 0 0 0 0 0 0 0 0 0 0 0 0 0 0 0 0 0 0 0 0 0 0 0 0
Wind_Speed_500mb
39 42 37 38 30 27 30 29 23 24 21 15 11 12 14 19 24 29 33 39 44 50 55 60 65 69 74 76 75 71 62 62 61 64 70 71 71 74
47 43 39 37 32 27 26 22 16 14 15 13 8 9 16 23 29 36 40 46 49 57 63 68 71 73 74 72 70 71 70 70 71 71 73 74 72 72
46 43 43 38 37 35 31 27 23 18 16 11 2 11 18 25 33 41 49 57 60 62 66 70 71 69 66 63 60 61 64 67 71 75 78 78 78 75
56 52 54 43 38 34 28 25 21 19 14 9 8 17 27 39 46 50 53 61 67 67 70 72 66 63 60 57 59 65 68 70 73 76 80 82 79 75
53 49 49 38 34 32 27 22 22 21 20 19 21 27 36 44 50 57 59 65 69 71 72 71 64 57 57 60 63 65 68 75 76 74 77 79 75 72
48 47 44 37 37 34 29 26 24 21 20 22 27 35 44 51 58 68 70 75 85 87 79 79 80 81 72 62 68 76 78 75 69 69 74 76 76 76
45 43 39 34 31 28 26 28 29 30 30 30 34 40 46 55 64 73 83 90 94 78 84 91 92 92 77 82 88 87 82 74 69 70 72 76 76 77
37 34 33 33 32 29 26 28 29 31 31 31 38 46 52 61 68 73 81 86 75 65 98 108 98 95 94 108 102 96 82 65 61 65 73 78 78 78
32 29 28 27 24 21 25 30 33 40 39 39 45 49 57 62 70 76 76 79 85 90 93 116 100 102 110 112 108 94 66 63 69 76 76 78 81 82
26 23 24 24 26 28 30 33 38 40 42 46 51 55 61 62 63 69 75 80 87 91 84 113 88 118 126 120 96 71 69 84 82 83 86 89 89 90
22 22 23 27 33 39 39 43 47 51 51 52 57 59 60 61 58 66 69 79 96 87 87 90 106 132 122 85 67 72 97 93 98 90 91 87 85 88
22 26 29 33 35 38 42 48 54 56 59 63 63 62 62 59 53 56 64 72 76 91 76 92 105 98 87 74 73 104 110 110 98 92 90 87 80 83
24 26 29 33 38 42 49 54 58 64 62 63 66 68 65 62 57 53 57 66 75 85 86 91 99 103 89 115 104 128 114 111 110 108 99 75 74 71
26 29 32 38 42 47 52 57 59 61 63 66 67 65 64 60 58 59 61 67 71 87 92 87 96 97 103 119 128 121 104 111 110 108 93 85 85 83
26 30 35 39 42 45 49 54 58 61 62 63 66 68 67 65 65 69 69 77 83 85 88 80 88 92 93 106 123 117 108 116 98 72 80 97 102 98
32 35 39 42 45 48 50 54 58 60 64 68 71 71 69 68 69 73 83 89 101 100 80 80 85 88 96 97 103 116 109 101 110 109 100 107 110 96
40 43 45 47 48 50 54 59 63 64 65 67 70 72 72 73 75 80 88 97 103 106 100 93 90 91 90 91 106 100 103 107 106 104 93 102 117 94
47 51 53 56 58 60 63 67 68 69 67 69 71 72 74 77 83 86 92 100 106 101 103 104 105 97 93 89 75 86 86 99 106 110 93 88 113 113
52 55 58 60 61 63 66 70 75 72 71 71 73 73 76 81 87 94 99 105 106 102 104 103 100 90 88 94 106 56 66 102 104 113 105 97 99 130
56 59 60 61 62 66 68 74 79 79 76 76 77 77 80 85 92 98 105 108 104 107 104 104 96 83 75 93 116 131 69 86 96 110 117 120 106 110
57 62 64 65 65 69 72 77 82 83 80 80 80 81 83 89 98 103 110 105 104 106 103 106 103 97 98 96 96 116 126 90 80 88 102 104 104 93
63 68 68 68 68 72 75 80 86 87 84 83 85 86 87 93 102 109 108 104 108 107 113 116 114 100 87 83 98 104 115 121 104 95 71 76 81 74
69 73 73 72 71 73 77 83 88 89 85 85 87 89 93 100 105 105 100 105 107 112 114 120 120 100 95 86 87 98 102 104 92 94 93 67 61 58
Wind_Direction_500mb
155 137 148 132 132 132 146 168 170 169 183 200 243 269 289 307 313 313 313 313 311 311 312 312 311 312 313 313 313 311 308 303 302 300 297 295 292 291
124 124 124 122 123 127 142 153 159 176 163 175 207 280 312 315 316 316 317 315 316 318 319 319 320 319 316 315 312 307 304 302 303 301 297 294 293 290
115 108 102 99 101 102 103 104 106 105 111 134 235 302 313 310 313 320 324 323 323 321 318 317 319 319 318 318 312 306 304 304 303 302 298 294 291 287
108 108 100 98 100 99 96 90 84 76 63 47 343 320 324 326 324 322 321 318 318 319 318 317 322 320 319 316 311 310 310 309 306 299 295 292 288 286
103 98 95 92 87 79 71 63 53 39 21 3 343 328 324 323 322 321 321 318 317 320 323 324 326 321 320 318 316 316 314 310 304 300 294 287 286 287
94 91 86 78 66 56 48 43 37 25 8 356 342 339 333 330 328 325 324 325 325 330 332 331 331 327 324 324 321 321 318 314 306 297 292 289 289 287
77 74 73 71 68 56 41 34 25 14 3 357 344 339 335 332 334 334 333 333 330 335 332 330 326 322 329 325 324 325 323 321 312 303 298 295 290 287
76 71 67 57 52 40 27 19 13 9 4 353 348 343 344 342 339 334 332 332 329 329 330 326 322 321 327 325 326 324 325 318 310 304 300 293 289 288
66 59 55 53 45 30 20 13 8 5 359 355 353 346 343 342 336 334 330 325 320 326 329 318 323 321 324 320 322 319 321 320 311 303 297 294 292 289
60 50 38 29 19 16 11 5 2 359 356 355 349 345 344 340 332 326 325 317 318 324 333 313 317 321 322 315 316 319 321 323 318 308 301 297 291 289
45 34 22 15 13 9 4 0 357 354 351 350 347 341 338 337 331 320 323 323 323 321 326 315 321 318 317 318 312 319 323 318 315 310 308 301 295 293
25 20 13 8 9 5 356 353 351 345 344 344 341 337 335 330 324 320 319 317 318 318 325 313 317 319 315 308 302 314 316 320 320 318 311 304 296 291
16 10 6 360 2 357 354 349 345 340 340 333 333 333 329 326 319 314 313 313 316 312 324 318 311 315 306 310 309 316 318 319 321 316 313 312 308 294
2 357 351 353 352 350 347 342 336 331 330 331 329 325 323 322 318 316 315 314 315 314 320 320 311 314 312 308 304 314 309 312 313 306 306 308 306 301
347 345 345 344 342 341 336 330 330 331 329 326 325 327 326 323 320 318 317 319 319 320 322 320 315 316 310 303 298 302 306 311 309 306 304 302 306 304
345 341 338 338 337 333 331 331 331 331 330 328 326 326 323 321 321 322 323 327 325 325 325 322 320 317 311 306 300 297 304 293 311 306 302 306 306 294
338 336 335 332 329 328 330 332 334 332 329 325 324 323 323 322 322 325 327 328 325 326 326 326 324 318 311 305 296 291 302 304 302 302 300 299 307 294
334 332 331 329 330 330 330 331 333 331 328 326 324 323 323 321 322 324 326 327 325 324 324 327 326 314 309 301 289 290 296 295 305 303 293 288 295 309
331 329 326 325 326 325 326 329 330 331 327 326 324 324 323 321 322 324 327 327 326 323 322 325 320 311 301 300 315 298 288 300 294 298 298 290 285 306
327 324 323 322 323 322 324 327 329 330 327 326 324 324 322 322 322 325 326 326 324 322 317 322 318 308 294 296 302 318 300 287 294 296 299 303 295 298
321 322 322 322 321 322 324 325 327 327 326 324 324 323 323 323 323 325 326 326 324 322 311 314 321 317 307 305 293 301 323 310 296 292 296 294 297 301
319 319 321 321 319 321 322 324 325 326 325 324 323 322 323 323 323 326 326 322 323 319 317 323 324 313 302 291 289 296 308 311 324 317 304 302 301 298
318 316 317 319 319 320 322 323 324 324 324 323 322 322 323 322 325 324 322 323 323 322 322 318 316 308 302 302 299 297 299 303 306 310 316 320 312 304
Wind_Speed_850mb
39 42 37 38 30 27 30 29 23 24 21 15 11 12 14 19 24 29 33 39 44 50 55 60 65 69 74 76 75 71 62 62 61 64 70 71 71 74
47 43 39 37 32 27 26 22 16 14 15 13 8 9 16 23 29 36 40 46 49 57 63 68 71 73 74 72 70 71 70 70 71 71 73 74 72 72
46 43 43 38 37 35 31 27 23 18 16 11 2 11 18 25 33 41 49 57 60 62 66 70 71 69 66 63 60 61 64 67 71 75 78 78 78 75
56 52 54 43 38 34 28 25 21 19 14 9 8 17 27 39 46 50 53 61 67 67 70 72 66 63 60 57 59 65 68 70 73 76 80 82 79 75
53 49 49 38 34 32 27 22 22 21 20 19 21 27 36 44 50 57 59 65 69 71 72 71 64 57 57 60 63 65 68 75 76 74 77 79 75 72
48 47 44 37 37 34 29 26 24 21 20 22 27 35 44 51 58 68 70 75 85 87 79 79 80 81 72 62 68 76 78 75 69 69 74 76 76 76
45 43 39 34 31 28 26 28 29 30 30 30 34 40 46 55 64 73 83 90 94 78 84 91 92 92 77 82 88 87 82 74 69 70 72 76 76 77
37 34 33 33 32 29 26 28 29 31 31 31 38 46 52 61 68 73 81 86 75 65 98 108 98 95 94 108 102 96 82 65 61 65 73 78 78 78
32 29 28 27 24 21 25 30 33 40 39 39 45 49 57 62 70 76 76 79 85 90 93 116 100 102 110 112 108 94 66 63 69 76 76 78 81 82
26 23 24 24 26 28 30 33 38 40 42 46 51 55 61 62 63 69 75 80 87 91 84 113 88 118 126 120 96 71 69 84 82 83 86 89 89 90
22 22 23 27 33 39 39 43 47 51 51 52 57 59 60 61 58 66 69 79 96 87 87 90 106 132 122 85 67 72 97 93 98 90 91 87 85 88
22 26 29 33 35 38 42 48 54 56 59 63 63 62 62 59 53 56 64 72 76 91 76 92 105 98 87 74 73 104 110 110 98 92 90 87 80 83
24 26 29 33 38 42 49 54 58 64 62 63 66 68 65 62 57 53 57 66 75 85 86 91 99 103 89 115 104 128 114 111 110 108 99 75 74 71
26 29 32 38 42 47 52 57 59 61 63 66 67 65 64 60 58 59 61 67 71 87 92 87 96 97 103 119 128 121 104 111 110 108 93 85 85 83
26 30 35 39 42 45 49 54 58 61 62 63 66 68 67 65 65 69 69 77 83 85 88 80 88 92 93 106 123 117 108 116 98 72 80 97 102 98
32 35 39 42 45 48 50 54 58 60 64 68 71 71 69 68 69 73 83 89 101 100 80 80 85 88 96 97 103 116 109 101 110 109 100 107 110 96
40 43 45 47 48 50 54 59 63 64 65 67 70 72 72 73 75 80 88 97 103 106 100 93 90 91 90 91 106 100 103 107 106 104 93 102 117 94
47 51 53 56 58 60 63 67 68 69 67 69 71 72 74 77 83 86 92 100 106 101 103 104 105 97 93 89 75 86 86 99 106 110 93 88 113 113
52 55 58 60 61 63 66 70 75 72 71 71 73 73 76 81 87 94 99 105 106 102 104 103 100 90 88 94 106 56 66 102 104 113 105 97 99 130
56 59 60 61 62 66 68 74 79 79 76 76 77 77 80 85 92 98 105 108 104 107 104 104 96 83 75 93 116 131 69 86 96 110 117 120 106 110
57 62 64 65 65 69 72 77 82 83 80 80 80 81 83 89 98 103 110 105 104 106 103 106 103 97 98 96 96 116 126 90 80 88 102 104 104 93
63 68 68 68 68 72 75 80 86 87 84 83 85 86 87 93 102 109 108 104 108 107 113 116 114 100 87 83 98 104 115 121 104 95 71 76 81 74
69 73 73 72 71 73 77 83 88 89 85 85 87 89 93 100 105 105 100 105 107 112 114 120 120 100 95 86 87 98 102 104 92 94 93 67 61 58
Wind_Direction_850mb
155 137 148 132 132 132 146 168 170 169 183 200 243 269 289 307 313 313 313 313 311 311 312 312 311 312 313 313 313 311 308 303 302 300 297 295 292 291
124 124 124 122 123 127 142 153 159 176 163 175 207 280 312 315 316 316 317 315 316 318 319 319 320 319 316 315 312 307 304 302 303 301 297 294 293 290
115 108 102 99 101 102 103 104 106 105 111 134 235 302 313 310 313 320 324 323 323 321 318 317 319 319 318 318 312 306 304 304 303 302 298 294 291 287
108 108 100 98 100 99 96 90 84 76 63 47 343 320 324 326 324 322 321 318 318 319 318 317 322 320 319 316 311 310 310 309 306 299 295 292 288 286
103 98 95 92 87 79 71 63 53 39 21 3 343 328 324 323 322 321 321 318 317 320 323 324 326 321 320 318 316 316 314 310 304 300 294 287 286 287
94 91 86 78 66 56 48 43 37 25 8 356 342 339 333 330 328 325 324 325 325 330 332 331 331 327 324 324 321 321 318 314 306 297 292 289 289 287
77 74 73 71 68 56 41 34 25 14 3 357 344 339 335 332 334 334 333 333 330 335 332 330 326 322 329 325 324 325 323 321 312 303 298 295 290 287
76 71 67 57 52 40 27 19 13 9 4 353 348 343 344 342 339 334 332 332 329 329 330 326 322 321 327 325 326 324 325 318 310 304 300 293 289 288
66 59 55 53 45 30 20 13 8 5 359 355 353 346 343 342 336 334 330 325 320 326 329 318 323 321 324 320 322 319 321 320 311 303 297 294 292 289
60 50 38 29 19 16 11 5 2 359 356 355 349 345 344 340 332 326 325 317 318 324 333 313 317 321 322 315 316 319 321 323 318 308 301 297 291 289
45 34 22 15 13 9 4 0 357 354 351 350 347 341 338 337 331 320 323 323 323 321 326 315 321 318 317 318 312 319 323 318 315 310 308 301 295 293
25 20 13 8 9 5 356 353 351 345 344 344 341 337 335 330 324 320 319 317 318 318 325 313 317 319 315 308 302 314 316 320 320 318 311 304 296 291
16 10 6 360 2 357 354 349 345 340 340 333 333 333 329 326 319 314 313 313 316 312 324 318 311 315 306 310 309 316 318 319 321 316 313 312 308 294
2 357 351 353 352 350 347 342 336 331 330 331 329 325 323 322 318 316 315 314 315 314 320 320 311 314 312 308 304 314 309 312 313 306 306 308 306 301
347 345 345 344 342 341 336 330 330 331 329 326 325 327 326 323 320 318 317 319 319 320 322 320 315 316 310 303 298 302 306 311 309 306 304 302 306 304
345 341 338 338 337 333 331 331 331 331 330 328 326 326 323 321 321 322 323 327 325 325 325 322 320 317 311 306 300 297 304 293 311 306 302 306 306 294
338 336 335 332 329 328 330 332 334 332 329 325 324 323 323 322 322 325 327 328 325 326 326 326 324 318 311 305 296 291 302 304 302 302 300 299 307 294
334 332 331 329 330 330 330 331 333 331 328 326 324 323 323 321 322 324 326 327 325 324 324 327 326 314 309 301 289 290 296 295 305 303 293 288 295 309
331 329 326 325 326 325 326 329 330 331 327 326 324 324 323 321 322 324 327 327 326 323 322 325 320 311 301 300 315 298 288 300 294 298 298 290 285 306
327 324 323 322 323 322 324 327 329 330 327 326 324 324 322 322 322 325 326 326 324 322 317 322 318 308 294 296 302 318 300 287 294 296 299 303 295 298
321 322 322 322 321 322 324 325 327 327 326 324 324 323 323 323 323 325 326 326 324 322 311 314 321 317 307 305 293 301 323 310 296 292 296 294 297 301
319 319 321 321 319 321 322 324 325 326 325 324 323 322 323 323 323 326 326 322 323 319 317 323 324 313 302 291 289 296 308 311 324 317 304 302 301 298
318 316 317 319 319 320 322 323 324 324 324 323 322 322 323 322 325 324 322 323 323 322 322 318 316 308 302 302 299 297 299 303 306 310 316 320 312 304